Weather History for Covington, KY

Change the Weather History Date:

Sunday, February 16, 2014

  Actual Average Record
Temperature  
Mean Temperature 25 °F 35 °F  
Max Temperature 30 °F 43 °F 73 °F (1883)
Min Temperature 20 °F 26 °F 0 °F (1920)
Degree Days  
Heating Degree Days 40 30  
Month to date heating degree days 648 512  
Since 1 July heating degree days 3871 3484  
Cooling Degree Days 0 0  
Month to date cooling degree days 0 0  
Year to date cooling degree days 0 0  
Moisture  
Dew Point 20 °F    
Average Humidity 80    
Maximum Humidity 96    
Minimum Humidity 63    
Precipitation  
Precipitation 0.05 in 0.10 in 1.53 in (1873)
Month to date precipitation 1.71 1.64  
Year to date precipitation 4.51 4.64  
Snow  
Snow 1.20 in 0.20 in 3.50 in (1993)
Month to date snowfall 10.8 4.1  
Since 1 July snowfall 44.0 16.2  
Snow Depth 5.00 in    
Sea Level Pressure  
Sea Level Pressure 30.10 in    
Wind  
Wind Speed 10 mph (SSW)    
Max Wind Speed 18 mph    
Max Gust Speed 23 mph    
Visibility 5 miles    
Events Snow    
T = Trace of Precipitation, MM = Missing Value Source: NWS Daily Summary

Daily Weather History Graph

Daily Weather History Graph

Search for Another Location

Airport:

Trip Planner

Search our weather history database for the weather conditions in past years. The results will help you decide how hot, cold, wet, or windy it might be!

Date:

Astronomy

Feb. 16, 2014 Rise Set
Actual Time 7:28 AM EST 6:17 PM EST
Civil Twilight 7:01 AM EST 6:44 PM EST
Nautical Twilight 6:30 AM EST 7:15 PM EST
Astronomical Twilight 5:59 AM EST 7:46 PM EST
Moon 8:11 PM EST (2/16) 7:59 AM EST (2/16)
Length of Visible Light 11h 42m
Length of Day
10h 48m
Full, 97% of the Moon is Illuminated
Feb 16
Full
Feb 22
Last Quarter
Mar 1
New
Mar 8
First Quarter
Mar 16
Full

Hourly Weather History & Observations

Time (EST) Temp. Windchill Dew Point Humidity Pressure Visibility Wind Dir Wind Speed Gust Speed Precip Events Conditions
12:08 AM 23.0 °F - 19.4 °F 86% 30.04 in 2.5 mi Calm Calm - 0.00 in Snow Light Snow
12:52 AM 23.0 °F 17.0 °F 19.9 °F 88% 30.05 in 1.8 mi SE 4.6 mph - 0.01 in Snow Light Snow
1:15 AM 23.0 °F 17.0 °F 21.2 °F 93% 30.02 in 0.8 mi SSE 4.6 mph - 0.01 in Snow Light Snow
1:50 AM 23.0 °F 17.0 °F 21.2 °F 93% 30.02 in 1.5 mi South 4.6 mph - 0.02 in Snow Light Snow
1:52 AM 23.0 °F 15.8 °F 21.0 °F 92% 30.05 in 1.5 mi South 5.8 mph - 0.02 in Snow Light Snow
2:12 AM 23.0 °F 17.0 °F 21.2 °F 93% 30.01 in 2.0 mi SSE 4.6 mph - 0.01 in Snow Light Snow
2:22 AM 23.0 °F 17.0 °F 21.2 °F 93% 30.02 in 3.0 mi South 4.6 mph - 0.01 in Snow Light Snow
2:42 AM 23.0 °F 15.8 °F 21.2 °F 93% 30.01 in 1.5 mi South 5.8 mph - 0.02 in Snow Light Snow
2:52 AM 23.0 °F 14.7 °F 21.0 °F 92% 30.03 in 1.5 mi SSE 6.9 mph - 0.02 in Snow Light Snow
3:18 AM 23.0 °F 13.9 °F 21.2 °F 93% 29.99 in 5.0 mi South 8.1 mph - 0.00 in   Overcast
3:52 AM 24.1 °F 14.4 °F 21.9 °F 91% 30.00 in 7.0 mi South 9.2 mph - 0.00 in   Overcast
4:52 AM 24.1 °F 16.0 °F 21.9 °F 91% 30.00 in 5.0 mi South 6.9 mph - N/A   Overcast
5:52 AM 25.0 °F 16.3 °F 21.9 °F 88% 29.99 in 5.0 mi South 8.1 mph - N/A   Overcast
6:52 AM 25.0 °F 18.1 °F 21.9 °F 88% 30.00 in 5.0 mi SSW 5.8 mph - N/A   Overcast
7:52 AM 26.1 °F 20.5 °F 21.9 °F 84% 30.00 in 4.0 mi SSW 4.6 mph - N/A   Overcast
8:11 AM 26.6 °F 22.6 °F 23.0 °F 86% 29.98 in 4.0 mi SW 3.5 mph - N/A   Overcast
8:52 AM 27.0 °F 19.5 °F 23.0 °F 85% 30.03 in 5.0 mi WSW 6.9 mph - N/A   Overcast
9:52 AM 28.0 °F 18.1 °F 23.0 °F 81% 30.04 in 6.0 mi West 11.5 mph - N/A   Haze
10:52 AM 28.9 °F 17.7 °F 23.0 °F 78% 30.07 in 5.0 mi West 15.0 mph - N/A   Haze
11:52 AM 30.0 °F 19.5 °F 23.0 °F 75% 30.09 in 6.0 mi WNW 13.8 mph - N/A   Haze
12:52 PM 30.0 °F 19.5 °F 23.0 °F 75% 30.09 in 6.0 mi West 13.8 mph - N/A   Haze
1:52 PM 30.0 °F 19.1 °F 21.9 °F 72% 30.11 in 6.0 mi WNW 15.0 mph - N/A   Haze
2:52 PM 28.9 °F 17.3 °F 21.0 °F 72% 30.14 in 6.0 mi WNW 16.1 mph - N/A   Haze
3:52 PM 28.9 °F 18.6 °F 19.9 °F 69% 30.15 in 6.0 mi NW 12.7 mph - N/A   Haze
4:52 PM 28.0 °F 17.5 °F 18.0 °F 66% 30.19 in 8.0 mi NW 12.7 mph - N/A   Overcast
5:52 PM 27.0 °F 15.6 °F 17.1 °F 66% 30.22 in 8.0 mi NNW 13.8 mph - N/A   Overcast
6:52 PM 26.1 °F 15.0 °F 17.1 °F 69% 30.26 in 8.0 mi NNE 12.7 mph - N/A   Overcast
7:52 PM 25.0 °F 14.8 °F 16.0 °F 69% 30.30 in 7.0 mi North 10.4 mph - N/A   Overcast
8:52 PM 24.1 °F 13.1 °F 16.0 °F 71% 30.31 in 7.0 mi NNE 11.5 mph - 0.00 in   Overcast
9:52 PM 24.1 °F 13.7 °F 16.0 °F 71% 30.32 in 7.0 mi NE 10.4 mph - N/A   Overcast
10:52 PM 21.9 °F 9.8 °F 14.0 °F 72% 30.31 in 7.0 mi East 12.7 mph - N/A   Mostly Cloudy
11:33 PM 21.2 °F 10.9 °F 12.2 °F 68% 30.28 in 8.0 mi East 9.2 mph - N/A   Scattered Clouds
11:52 PM 19.9 °F 10.1 °F 12.9 °F 74% 30.31 in 8.0 mi East 8.1 mph - N/A   Partly Cloudy